Location: Newark
(46.7000°N, 60.6000°W)
Time: 07:58:32
(UTC+00:00)

Vanguard 3 - Pass Details

Date: 30 October 2020
Orbit: 508 x 3262 km, 33.3° (Epoch: 29 November)

Event Time Altitude Azimuth Distance (km) Brightness Sun altitude
Rises 15:17:10 0° 278° (W) 7,233 11.8 28.9°
Reaches altitude 10° 15:23:31 10° 267° (W) 6,116 11.7 29.0°
Maximum altitude 15:36:38 25° 223° (SW) 4,389 11.8 29.2°
Drops below altitude 10° 15:46:51 10° 176° (S) 4,646 12.7 29.2°
Sets 15:50:51 0° 163° (SSE) 5,229 12.3 29.2°
